RH
100 99 99 99 99 99 99 99 99 98 99 99 99 99 99 99 99 99 99 99 99 98 98 98 98 98 98 98 98 98 98 98 97 98 98 98 98 98 98 97 97 97 96 96 96 96 96 95 94 92 89 86 82 79 76 72 71 74 80 74 71 68 66 75 77 77 78 80 82 88 94 96 97 97 98 97 97 97 97 97 97 97 97 97 97 97
98 98 98 98 99 99 98 99 99 99 99 99 99 99 98 98 98 98 98 98 98 98 98 98 97 97 97 97 97 97 97 96 96 96 96 97 97 97 97 97 97 96 96 96 96 95 94 92 89 86 83 80 77 74 70 68 68 69 73 75 73 69 67 70 72 72 74 80 86 92 94 95 95 96 96 96 95 95 95 95 95 95 94 94 93 92
97 98 98 99 99 99 99 99 99 100 100 99 99 99 98 98 98 98 98 98 98 98 98 97 97 97 97 97 96 96 95 95 95 95 96 96 96 96 96 96 96 96 96 95 94 92 91 88 85 82 79 76 73 68 65 62 61 60 60 59 57 55 56 58 60 62 67 71 75 78 79 81 82 84 86 88 88 88 89 88 88 88 87 84 82 81
97 98 99 100 100 99 99 99 99 99 99 99 99 99 99 98 98 98 98 97 97 97 97 97 97 96 96 95 94 94 94 94 95 96 96 96 96 96 96 96 95 95 94 93 92 90 88 85 81 77 73 68 62 58 53 51 52 56 60 56 53 51 51 52 53 55 57 60 64 66 68 69 70 70 72 72 74 74 76 76 76 76 74 74 74 75
98 99 100 100 100 100 100 100 99 99 98 98 98 98 98 98 98 98 97 97 97 96 96 96 96 95 95 94 93 93 93 94 95 96 96 96 96 95 95 94 93 92 90 88 87 84 81 76 72 66 60 54 49 44 40 37 43 54 66 62 61 62 65 64 63 64 67 74 79 83 84 84 83 80 77 76 76 76 77 78 79 80 82 82 83 83
98 99 99 99 99 99 99 99 99 98 98 98 98 97 97 97 97 97 96 96 96 96 96 96 95 95 94 94 94 94 94 94 95 95 95 94 94 93 92 89 86 82 78 76 74 71 67 62 56 51 46 43 40 38 36 42 52 63 73 77 82 85 88 84 83 84 88 91 92 92 91 88 84 81 78 77 77 78 79 83 86 90 93 93 93 92
96 97 98 98 98 98 98 98 98 97 97 96 96 96 96 95 95 96 96 96 96 96 96 96 96 95 95 95 95 95 95 94 94 94 93 92 90 86 81 75 70 66 64 62 60 58 55 51 47 43 40 40 40 42 46 56 64 70 76 84 90 94 95 93 92 92 92 90 87 84 78 74 70 68 67 67 67 68 68 72 76 82 87 89 91 92
93 94 95 95 95 96 96 96 96 95 94 95 95 95 94 94 94 94 95 95 95 96 96 96 96 96 96 96 95 94 93 92 90 88 84 80 75 70 64 60 57 56 56 56 56 54 50 47 44 41 39 38 39 42 48 51 55 60 66 72 77 83 88 88 88 85 80 76 71 67 63 62 60 60 60 60 60 60 60 60 62 67 72 78 83 88
92 92 93 92 93 94 95 95 95 94 94 94 94 94 94 95 95 96 96 96 96 96 96 96 96 95 94 92 90 89 86 83 78 74 68 62 58 54 52 52 53 54 56 55 54 51 48 44 42 39 36 34 34 35 38 40 43 46 50 54 58 63 68 70 70 66 62 60 58 58 58 58 58 58 57 56 56 54 53 52 54 56 60 67 74 79
90 91 92 92 92 93 94 95 96 96 95 95 95 95 95 96 96 96 96 95 94 94 92 92 90 88 86 84 81 78 74 68 63 58 54 51 50 49 50 51 52 54 54 53 51 48 45 42 39 36 33 30 28 27 27 28 29 31 34 37 42 46 51 54 54 54 54 54 54 55 55 55 55 54 52 51 50 48 48 48 48 49 50 54 60 65
90 90 90 91 92 92 94 96 96 97 96 96 96 96 95 94 93 92 90 88 86 84 83 82 80 78 76 72 69 66 62 58 54 51 49 49 49 50 51 52 53 53 52 50 48 45 42 38 35 31 28 25 23 22 20 20 20 21 24 27 32 37 42 47 50 51 52 52 52 51 50 50 48 47 46 45 44 44 44 44 44 44 44 45 48 52
88 88 89 89 90 91 93 94 96 96 96 95 94 92 90 88 86 84 81 78 76 74 73 72 70 68 67 63 60 58 57 54 53 52 51 52 52 53 53 53 53 52 51 49 47 44 40 36 31 27 24 21 18 17 16 16 17 18 21 24 29 34 39 43 46 47 47 46 46 45 44 43 42 42 41 41 41 42 42 42 42 42 42 42 44 46
84 84 84 84 85 87 89 90 92 92 90 88 86 84 80 79 78 76 74 73 72 71 69 68 66 65 63 61 60 58 57 56 56 56 55 55 55 54 54 54 53 52 51 48 46 42 38 34 29 24 21 18 16 15 15 16 17 20 23 26 30 33 36 39 40 41 40 40 40 40 39 39 38 39 40 40 41 42 42 42 43 44 44 43 44 46
79 77 75 74 77 80 83 84 84 84 82 79 76 74 72 72 72 70 69 69 68 68 67 66 65 64 63 62 60 59 58 58 58 57 56 55 54 53 52 52 50 49 47 44 40 37 34 29 25 22 18 16 16 15 16 18 20 24 26 30 32 34 35 36 37 37 38 38 37 37 37 38 39 40 40 42 43 44 45 46 48 48 48 46 45 44
76 73 69 69 70 72 74 74 74 74 73 72 72 71 70 70 69 68 66 66 66 66 67 66 66 65 64 63 61 60 58 56 55 54 54 52 52 50 49 47 45 42 40 37 34 30 27 24 20 18 16 15 16 17 20 23 26 28 30 32 34 35 36 36 36 37 37 37 37 38 38 39 40 42 42 43 45 47 49 51 52 51 49 46 43 42
74 69 64 64 64 65 67 67 67 67 67 68 69 69 69 69 70 70 69 69 69 69 70 70 70 70 68 64 62 61 59 57 56 55 54 52 50 48 47 43 40 36 33 30 27 24 21 18 16 14 14 15 18 21 25 28 30 32 34 35 35 36 36 36 37 37 38 38 39 39 40 41 42 42 43 44 46 48 49 50 50 48 44 42 39 37
72 68 64 62 62 62 64 65 65 64 65 67 69 70 70 71 73 75 74 74 76 76 78 78 78 78 78 73 69 66 63 60 59 58 56 52 48 45 43 39 35 30 27 24 22 19 16 14 14 14 15 18 22 26 30 32 34 35 36 36 37 37 37 38 38 39 40 40 40 42 42 42 42 43 43 44 44 44 45 44 43 41 38 36 35 34
69 68 66 64 64 64 65 66 67 68 68 69 71 72 72 74 76 78 80 80 81 82 85 85 83 82 82 83 76 69 66 63 60 56 52 46 41 38 36 33 29 26 22 19 17 16 15 15 15 17 20 23 27 31 34 35 36 37 37 38 38 38 39 40 40 41 42 42 42 42 42 43 43 43 42 42 42 41 40 39 38 36 35 34 33 32
60 60 61 63 63 64 64 65 66 68 71 73 74 76 78 77 78 80 82 82 82 83 84 84 83 82 80 82 78 72 66 61 57 52 46 38 32 29 28 26 22 19 15 14 16 18 20 21 22 24 26 30 33 36 38 38 38 38 38 39 40 40 41 42 42 43 43 44 44 43 43 43 42 42 42 40 40 39 38 36 36 35 34 33 33 32
50 51 53 54 55 57 60 63 66 68 68 68 69 70 70 72 74 76 76 76 76 76 76 76 77 76 74 76 74 68 60 56 52 47 40 31 25 22 22 20 18 16 13 16 21 26 28 30 31 33 35 37 39 40 40 40 40 40 40 41 42 42 43 44 44 44 44 44 44 44 43 42 42 42 40 40 39 38 37 36 36 35 34 34 34 33
46 47 47 46 46 49 54 57 58 60 60 60 61 61 61 60 60 61 62 62 62 62 60 62 63 63 60 61 60 58 54 50 47 42 36 26 20 18 18 18 18 16 15 20 26 32 36 38 40 42 43 44 44 44 44 44 43 43 43 44 44 45 45 46 46 45 45 44 44 44 43 43 42 42 40 40 39 38 38 37 36 36 35 35 35 35
49 50 49 45 44 46 51 56 60 62 62 58 58 58 57 56 56 56 56 55 53 51 49 49 48 46 46 46 46 47 46 44 42 38 32 24 18 16 18 19 19 18 18 24 30 36 40 42 45 47 49 49 49 48 48 47 47 47 47 47 47 47 47 47 47 46 46 45 44 44 44 43 42 42 42 40 40 38 38 37 37 36 36 36 36 37
50 52 51 49 49 51 55 61 66 68 66 65 64 62 60 58 57 55 53 51 48 46 43 42 40 40 40 40 41 42 41 38 35 31 27 22 17 15 19 21 23 23 24 29 34 39 42 45 48 51 53 53 52 51 50 50 50 50 50 49 49 49 49 48 48 48 47 46 46 45 44 44 43 42 42 40 40 39 38 38 38 38 38 38 38 38
50 52 54 55 57 58 61 67 70 71 70 72 72 68 61 60 58 55 53 50 48 46 44 43 41 40 38 38 37 36 34 31 28 25 23 20 17 17 21 26 29 30 32 36 40 42 44 48 51 54 56 55 54 53 52 52 51 51 51 50 50 50 50 50 50 49 48 48 47 46 45 44 43 42 42 42 41 40 40 40 40 40 40 40 40 40
50 54 58 58 59 60 62 65 67 70 71 72 72 69 66 65 63 61 58 54 52 50 50 50 47 43 39 36 32 29 27 26 25 23 22 21 19 20 27 35 38 40 40 42 44 46 48 50 53 55 56 55 54 53 52 52 51 51 51 51 52 52 52 51 51 50 49 48 47 46 46 45 44 44 44 44 43 43 43 42 42 42 42 41 40 40
48 51 54 54 56 58 60 62 65 68 72 73 73 72 72 72 70 66 62 56 53 53 56 58 54 48 40 36 31 26 26 25 24 23 24 26 26 29 36 44 47 47 45 46 47 49 50 51 53 54 55 54 53 52 51 51 50 50 51 51 51 52 51 51 50 50 49 49 48 48 48 48 47 47 46 46 46 45 45 44 43 43 42 42 42 41
47 49 50 50 51 52 54 56 58 61 64 66 69 71 73 72 68 62 57 52 52 54 58 58 54 46 38 34 29 26 26 25 25 26 30 34 38 43 47 52 54 52 50 48 48 49 50 51 52 52 52 52 51 50 50 50 50 50 51 51 51 51 52 52 52 52 52 52 52 51 51 50 50 50 49 48 48 47 46 46 45 44 44 44 43 42
48 48 48 47 46 46 47 49 51 53 54 55 58 60 63 60 58 53 47 44 45 48 49 49 47 43 39 34 30 27 26 26 30 34 38 44 51 56 57 60 60 58 54 50 48 48 50 50 51 51 51 50 50 49 50 50 51 52 53 54 54 54 55 55 55 55 55 54 54 54 53 52 52 51 51 50 49 48 48 47 47 47 46 46 45 44
48 48 48 47 46 46 45 46 48 50 50 49 48 47 47 45 42 38 34 33 33 34 33 32 33 34 36 34 33 31 26 28 36 44 46 55 61 65 64 64 64 62 58 53 49 47 47 49 50 50 50 50 50 51 52 53 54 56 57 58 58 58 58 57 57 56 56 55 55 54 54 53 52 52 52 51 50 50 49 49 49 49 48 48 46 45
47 48 48 48 48 48 48 49 50 50 48 45 41 37 33 31 28 26 24 24 23 23 22 22 24 27 32 36 38 37 31 35 42 49 51 61 67 70 68 67 66 64 61 58 53 48 44 46 49 50 50 51 52 53 54 56 57 58 58 58 58 58 57 56 56 55 54 54 53 53 52 52 52 52 52 51 51 50 50 50 50 50 50 49 48 46
40 42 44 44 45 45 46 47 46 45 42 38 33 29 25 23 21 20 20 20 20 20 20 21 23 26 32 39 46 49 40 40 45 50 54 64 70 71 70 69 67 64 64 64 62 58 51 47 46 48 50 51 52 53 55 56 56 57 56 56 55 54 54 54 53 53 52 52 52 52 52 52 52 52 52 52 52 52 52 52 52 52 52 50 49 48
26 27 28 30 32 33 34 35 35 34 32 30 26 24 21 20 20 20 20 20 20 20 21 23 26 30 35 40 46 49 43 43 46 52 59 68 71 72 70 71 69 66 66 67 69 70 65 54 48 44 46 47 48 50 52 54 55 56 55 54 54 54 54 54 54 54 54 54 54 54 55 55 55 55 55 55 54 54 54 54 54 54 54 53 52 50
20 20 19 20 22 23 24 24 26 26 25 24 23 21 20 20 20 20 20 20 20 20 22 24 28 33 38 40 41 42 42 47 53 60 68 74 76 75 72 72 71 69 68 68 69 70 70 61 53 46 43 44 44 46 47 50 53 55 56 56 56 56 57 58 58 58 58 58 58 58 58 58 59 58 58 58 58 58 58 58 58 58 57 56 55 54
20 20 20 20 20 20 21 21 21 22 22 21 21 20 20 20 21 21 21 21 21 20 20 25 30 34 37 38 38 40 45 52 60 68 73 77 78 76 74 73 72 71 70 69 69 68 68 63 58 53 47 44 44 45 46 49 52 54 56 57 58 59 60 61 61 61 60 60 60 60 60 60 60 60 60 60 60 60 60 60 60 60 60 60 60 58
20 20 21 21 21 20 20 20 20 20 20 20 20 20 20 21 21 21 21 22 22 22 22 22 25 29 34 39 41 43 48 54 62 69 72 74 74 74 74 72 72 72 74 72 71 70 70 65 62 60 55 48 46 46 48 50 53 56 58 60 60 61 61 62 62 61 60 60 60 60 61 61 61 61 62 62 62 61 61 61 62 62 62 62 62 62
20 20 20 20 20 20 20 20 20 20 20 20 20 21 21 21 21 21 21 22 23 24 24 24 26 30 35 40 45 50 52 57 62 67 69 70 72 73 74 72 72 74 76 74 73 73 73 69 66 63 61 56 51 48 50 53 56 58 60 61 62 62 62 62 62 61 60 60 60 60 61 61 61 62 62 62 62 62 62 62 62 63 63 64 64 64
20 20 20 20 20 20 20 20 20 20 20 21 21 21 22 21 21 20 20 21 23 24 26 30 34 39 44 48 51 54 57 60 62 65 67 69 70 72 73 71 70 72 75 76 76 76 77 75 71 67 64 62 58 54 54 56 58 60 60 61 61 61 62 62 62 62 61 60 60 60 60 60 60 60 60 60 61 61 61 62 62 63 63 64 64 64
20 20 20 20 20 20 20 20 20 20 20 21 21 21 21 21 20 20 20 22 26 29 34 39 44 50 54 57 58 60 60 61 62 64 65 67 68 68 70 68 68 69 72 76 77 79 81 81 79 75 70 66 63 61 60 60 60 60 60 60 60 60 60 61 61 61 60 60 58 58 58 58 58 58 58 58 58 58 58 60 60 61 61 62 62 62
20 20 20 19 19 19 19 19 19 20 20 20 20 20 20 20 20 21 24 29 35 41 47 52 56 59 61 62 62 63 63 63 64 64 65 66 66 67 68 68 69 70 72 75 78 80 84 84 83 80 77 72 68 65 65 64 64 63 62 61 60 60 60 60 60 60 59 58 58 57 57 57 57 56 56 56 56 56 56 56 57 58 58 59 60 60
19 19 19 19 19 19 19 19 19 19 19 19 19 19 19 21 24 28 34 42 48 54 60 62 63 64 64 64 65 65 66 66 66 67 68 68 69 70 71 72 73 74 75 77 79 81 84 83 82 81 80 78 74 71 68 67 67 66 65 62 60 58 59 59 59 58 58 58 57 56 56 56 56 56 56 56 56 55 55 55 56 56 57 58 58 58
18 18 18 18 18 19 19 19 18 18 18 18 18 20 23 28 35 42 48 53 57 60 62 62 62 63 63 64 66 67 68 70 70 72 73 74 75 76 76 77 77 78 79 80 81 82 84 84 83 82 81 81 79 76 73 70 68 68 67 64 61 59 58 58 58 58 58 58 57 57 56 56 56 56 57 57 56 56 56 56 56 57 57 58 58 58
18 18 18 18 18 18 18 18 18 18 18 19 22 26 32 40 46 51 55 58 59 60 60 60 60 60 61 64 67 70 73 74 76 77 78 79 80 81 81 81 81 82 82 84 84 84 84 84 84 84 84 84 84 81 76 71 69 68 67 66 63 60 58 56 57 58 58 57 57 57 58 58 58 58 58 57 57 57 57 57 58 58 58 58 58 59
18 18 18 18 18 18 18 18 19 20 22 26 30 37 44 50 54 57 59 60 60 61 61 62 62 62 64 65 68 72 75 77 79 81 82 82 83 83 84 84 84 85 86 86 86 86 86 86 85 84 84 85 85 83 78 72 69 67 66 66 65 63 58 55 55 56 56 55 56 57 58 59 60 60 59 58 58 58 58 58 58 58 58 60 60 60
18 18 18 18 18 19 20 22 24 26 31 36 42 48 54 58 60 61 61 61 62 63 65 66 67 68 70 71 72 74 76 79 82 83 84 84 84 85 85 86 87 88 89 89 90 90 89 88 86 86 87 88 87 84 80 75 71 68 67 67 67 66 63 58 56 54 54 54 55 57 58 60 61 61 60 60 59 58 58 58 58 58 58 60 60 60
18 18 18 20 21 23 26 28 32 37 43 49 54 58 61 62 62 62 62 62 64 66 68 70 72 74 74 74 74 76 77 80 83 85 86 86 87 87 87 88 88 89 90 90 91 91 90 88 87 86 87 88 86 84 81 77 74 71 68 68 68 67 64 60 59 58 57 56 56 57 59 61 61 60 60 58 58 58 58 57 57 57 57 58 58 58
17 18 19 22 25 29 34 37 42 47 53 58 61 63 64 64 64 64 64 64 66 68 72 74 76 77 77 77 77 78 78 80 82 85 88 89 90 90 89 89 89 90 90 90 90 90 90 89 88 88 88 87 86 83 80 78 76 74 70 70 69 68 65 63 62 62 62 60 59 58 60 62 62 61 60 58 57 56 56 56 56 56 56 57 58 58
17 18 20 24 29 35 40 45 50 55 59 62 65 67 68 67 67 66 66 67 69 71 73 75 77 79 80 80 80 80 78 78 80 82 86 88 90 90 90 90 90 90 90 90 90 90 89 88 88 88 89 88 86 82 78 77 76 75 73 72 72 70 68 66 65 65 64 63 62 62 64 65 65 64 63 61 60 57 56 56 56 57 58 58 58 58
18 19 21 26 33 40 47 52 57 62 66 68 70 70 71 70 69 68 68 70 71 73 74 76 79 80 80 80 80 80 80 78 78 79 81 84 85 87 88 89 89 90 90 90 90 89 89 88 88 88 88 88 86 82 77 76 75 76 76 76 74 74 72 68 67 66 66 66 66 67 69 71 72 72 71 68 65 61 57 57 58 58 60 62 62 61
18 20 22 29 36 44 52 58 63 67 70 71 71 71 72 72 72 71 71 72 73 74 76 79 80 80 78 77 77 77 77 76 76 76 78 80 82 83 84 85 86 87 88 88 89 88 88 87 86 85 85 85 84 81 76 74 74 76 78 78 77 76 74 71 69 68 68 68 70 71 74 76 77 78 80 78 74 67 60 59 58 60 62 64 65 64
19 20 24 31 39 48 58 64 69 72 73 73 73 73 73 74 74 74 74 74 74 74 76 79 81 80 78 76 76 76 74 74 73 73 76 79 81 82 82 84 84 85 86 88 88 88 87 86 84 83 81 82 82 80 78 76 77 78 80 79 79 78 76 74 71 70 72 74 75 76 78 80 81 83 86 86 82 76 68 62 60 61 63 67 68 68
19 21 24 32 42 51 62 69 74 76 76 76 75 75 75 75 76 76 76 75 75 75 76 79 81 81 79 77 76 76 74 73 72 71 73 76 78 78 79 80 82 84 87 89 90 90 89 89 87 84 81 79 80 81 81 80 81 82 82 80 80 80 79 76 74 74 76 78 80 82 83 83 84 84 87 89 88 84 77 70 66 65 66 70 72 72
Wind_Speed
23 23 23 23 22 20 18 16 13 11 10 11 12 12 12 12 13 14 15 16 17 18 19 19 19 20 20 21 21 22 24 25 26 26 26 26 25 25 24 24 24 24 24 24 24 23 22 19 17 16 15 15 15 14 14 14 14 14 15 15 15 15 15 15 15 15 15 15 15 14 14 15 15 17 18 19 19 20 21 21 21 21 21 21 21 21
22 21 21 20 19 17 15 14 11 9 8 9 10 12 12 12 12 13 14 15 16 16 17 17 17 17 18 19 19 20 21 22 23 23 23 23 23 23 23 23 23 23 23 23 22 21 18 16 16 16 16 15 15 14 14 14 14 14 15 15 15 15 15 15 15 15 15 15 15 15 16 17 18 19 20 20 21 22 22 22 22 23 23 22 22 22
19 19 18 17 16 14 12 11 10 9 8 7 8 10 11 12 12 12 12 13 13 14 15 15 15 16 17 18 18 19 20 20 20 20 20 20 20 20 20 21 21 21 21 20 19 17 16 16 16 16 16 16 15 15 15 15 15 16 17 17 17 17 17 17 16 16 16 17 17 17 18 19 19 20 21 22 22 22 23 23 23 23 23 23 23 22
16 16 15 14 14 12 11 10 9 8 8 7 7 8 9 11 12 12 12 12 12 12 12 13 14 14 15 16 16 17 17 17 17 17 17 17 17 18 19 19 19 19 18 16 15 15 15 16 17 17 17 16 16 16 16 17 17 17 18 19 19 19 19 18 18 18 18 17 17 17 17 17 18 19 19 20 20 21 21 21 21 21 21 21 20 20
14 13 13 12 12 11 10 9 9 8 8 7 7 8 9 10 11 11 11 11 11 11 11 11 12 12 13 13 13 14 14 14 14 14 15 15 16 16 17 17 16 15 14 14 14 15 16 16 17 17 17 17 17 17 18 18 18 18 18 18 18 18 18 18 17 17 16 16 15 15 15 15 15 15 16 16 16 16 16 16 16 17 16 17 16 16
11 11 11 11 10 10 9 9 9 9 9 8 8 8 9 9 10 10 10 10 10 10 10 10 10 10 11 11 11 11 12 12 12 13 14 14 15 15 15 14 13 13 13 13 14 15 16 17 17 17 17 18 18 18 17 17 17 17 17 16 16 16 16 16 16 15 15 15 15 16 16 16 16 16 16 15 15 15 15 15 14 14 14 14 14 14
10 10 10 10 10 10 9 9 9 9 9 8 8 8 9 9 9 9 9 9 9 9 8 9 9 9 9 10 10 10 11 11 12 12 13 13 14 13 13 12 12 12 13 14 15 16 17 17 18 18 18 19 18 18 17 17 17 17 17 17 17 17 17 17 17 17 17 17 18 18 18 18 18 18 18 17 17 17 17 17 16 15 15 15 14 14
10 10 10 10 10 10 10 10 10 10 9 9 8 8 8 8 8 8 8 8 8 8 8 8 9 9 9 9 10 10 11 11 12 12 13 13 12 12 11 11 12 12 13 14 15 17 18 18 19 20 20 20 20 19 19 19 19 20 20 20 20 19 19 19 19 19 19 20 20 20 20 19 19 19 18 18 18 18 18 18 17 17 16 15 15 14
10 10 11 11 11 11 11 11 11 10 9 9 8 8 8 8 8 8 8 8 8 8 8 9 9 9 10 10 10 11 11 12 12 12 12 12 11 11 11 12 12 13 14 15 17 18 19 20 21 21 22 22 22 22 22 22 22 22 23 23 22 22 22 22 22 21 21 21 21 20 20 20 19 19 19 19 18 18 18 18 17 17 17 16 15 15
10 11 11 12 12 12 11 11 11 10 10 9 9 9 8 8 8 8 8 8 8 9 9 9 9 10 10 11 11 11 11 12 12 12 12 12 11 12 12 12 13 14 16 17 18 20 21 21 22 23 23 23 23 23 24 24 24 24 24 24 24 24 23 23 23 22 22 21 21 21 20 19 19 19 19 18 18 18 18 17 16 16 16 16 16 15
10 11 11 11 12 13 12 11 10 10 10 9 9 10 9 8 8 7 7 8 8 8 9 9 10 10 10 11 11 11 11 11 11 12 12 12 12 13 13 14 15 16 17 19 20 21 22 23 23 23 23 23 23 24 24 24 24 24 24 24 24 24 23 23 23 22 22 21 21 20 20 19 19 18 18 18 18 18 17 16 16 16 16 16 15 15
11 11 11 11 12 12 12 11 11 10 10 9 8 8 8 8 8 7 7 8 8 8 8 9 10 11 11 11 11 11 11 11 11 11 12 12 13 14 15 16 17 18 19 20 21 22 23 24 24 24 24 24 24 24 24 23 23 23 23 22 22 22 22 22 21 21 21 20 20 19 19 18 18 18 18 18 17 17 17 16 16 16 16 15 15 15
11 11 11 11 11 11 10 10 10 10 9 8 7 6 6 7 7 8 8 8 9 9 9 9 10 10 11 11 11 11 12 12 12 13 13 14 14 15 16 17 18 19 20 21 22 23 23 24 25 25 25 24 24 24 23 22 22 21 21 20 20 20 20 20 20 19 19 19 18 18 18 17 17 17 17 17 17 16 16 16 16 15 15 15 15 15
11 11 11 10 10 10 10 10 9 9 9 8 8 7 8 8 8 8 8 9 9 9 10 10 10 11 11 11 11 12 13 13 14 15 15 15 16 17 17 19 20 20 21 22 22 23 24 24 25 25 25 24 24 23 22 21 20 19 19 19 18 18 18 18 18 18 18 18 17 17 17 17 17 16 16 16 16 16 16 15 15 15 16 16 16 16
10 10 10 9 9 9 9 9 9 9 9 9 9 9 9 9 9 9 8 9 9 10 10 10 11 12 12 12 12 13 14 15 15 16 16 17 17 18 19 20 21 21 22 22 23 23 24 24 24 24 24 24 23 22 21 20 19 18 17 17 17 17 17 17 17 17 17 17 17 17 17 16 16 16 16 16 16 15 15 15 16 16 17 17 17 17
10 10 9 8 8 8 8 8 9 9 9 9 9 9 9 9 10 10 10 10 11 11 12 12 13 13 14 14 14 14 14 15 16 17 18 18 19 19 20 21 22 23 23 23 23 24 24 23 23 23 23 22 22 21 20 19 18 17 17 17 17 17 17 17 17 17 17 17 17 17 17 16 16 16 16 16 16 16 16 16 17 17 18 18 18 18
10 9 8 8 8 8 8 8 9 9 9 10 10 10 10 11 11 12 12 12 13 13 14 14 13 13 14 15 15 15 15 17 18 20 20 21 21 21 22 23 24 24 23 23 23 23 22 22 22 22 21 21 20 19 19 18 17 17 17 16 16 16 17 17 17 17 17 17 17 17 17 17 17 17 17 17 17 17 18 18 18 18 18 18 18 18
10 9 9 8 8 8 8 9 9 10 10 10 11 11 11 12 12 13 13 14 14 14 15 15 15 15 15 15 17 18 18 19 20 22 23 23 23 23 23 23 23 23 22 21 21 21 20 20 20 19 19 19 19 18 18 18 17 17 17 17 17 17 17 17 17 17 17 17 17 17 17 17 17 17 18 18 18 18 19 19 19 19 19 19 18 18
11 10 10 10 10 10 10 10 10 11 11 12 12 12 13 13 14 14 15 15 16 16 17 17 18 18 18 18 19 21 21 21 23 24 25 25 24 23 23 23 22 22 20 19 18 18 18 18 17 17 17 17 17 18 18 18 18 17 17 17 17 16 16 16 16 16 16 17 17 17 17 17 17 18 18 18 19 19 19 19 19 19 19 19 19 19
12 12 12 12 13 13 12 12 12 12 13 14 15 15 15 16 16 16 17 17 18 19 19 19 20 20 21 20 21 22 23 23 24 25 26 25 24 23 22 22 21 20 18 17 16 15 15 16 16 16 16 16 17 17 17 18 18 18 17 17 17 16 16 16 16 16 16 16 17 17 17 17 17 18 18 18 19 19 19 19 20 20 20 20 20 20
13 13 13 13 13 13 13 13 13 14 14 15 16 16 17 17 17 18 18 19 19 20 21 21 21 22 22 22 23 23 24 24 24 25 26 25 24 22 21 20 19 18 16 15 14 14 14 14 15 15 15 16 16 17 18 18 18 18 17 17 17 16 16 16 16 16 16 16 16 17 17 17 18 18 18 19 19 19 20 20 20 20 20 20 21 21
14 14 15 14 13 12 12 13 13 14 15 15 15 16 16 17 17 18 18 19 19 20 21 21 21 22 22 22 22 23 23 23 23 24 24 24 23 21 19 18 17 16 15 13 13 13 13 13 14 14 15 16 16 17 18 18 18 17 17 17 17 16 16 16 16 16 16 16 17 17 17 18 18 19 19 19 20 20 20 21 21 21 21 21 21 21
15 15 15 15 14 13 12 12 13 14 15 15 15 16 16 17 17 18 18 19 19 20 20 20 21 21 20 20 20 21 21 20 20 21 21 22 22 20 17 16 15 14 14 13 13 13 13 13 13 13 14 16 17 17 17 17 17 17 17 17 17 17 17 17 17 17 17 17 17 18 18 18 19 19 20 20 20 21 21 21 21 21 21 21 21 21
15 15 15 15 14 14 13 13 13 14 14 15 15 16 17 18 18 19 19 19 19 20 20 20 20 20 19 19 19 19 19 18 18 18 19 20 20 18 16 14 13 13 13 12 12 12 12 12 12 13 14 16 16 17 17 17 17 17 17 17 17 17 17 17 18 18 18 19 19 19 19 19 20 20 20 20 21 21 21 21 21 22 22 22 22 22
15 15 15 15 15 15 14 14 14 15 15 16 17 18 18 19 19 20 20 19 19 20 21 21 21 21 21 20 20 19 18 17 17 17 17 18 18 17 15 13 13 13 12 12 12 12 11 11 11 12 14 15 16 16 16 16 16 16 16 17 17 18 18 19 19 19 19 20 20 20 20 20 20 20 20 21 21 21 21 22 22 22 22 22 23 22
16 16 16 16 16 16 16 16 15 16 16 17 18 18 19 20 20 20 20 20 20 20 21 22 22 22 22 22 22 21 19 18 17 16 15 17 17 16 14 12 12 12 13 12 12 11 11 11 11 12 13 15 16 16 16 16 16 16 16 17 18 18 19 19 19 20 20 20 20 20 20 20 20 20 20 21 21 21 22 22 23 23 23 23 23 23
17 17 17 17 17 17 18 18 18 17 17 17 18 18 19 20 21 21 21 21 21 21 21 22 23 23 23 23 22 21 20 19 17 15 14 15 16 15 13 12 12 13 14 13 12 12 12 12 12 12 13 14 15 15 15 15 15 16 16 17 17 18 18 18 18 18 18 19 19 19 19 19 20 20 21 21 22 22 23 23 23 24 24 25 25 24
17 17 18 18 19 19 19 18 18 18 18 18 18 18 19 20 21 22 22 21 20 21 21 22 22 23 23 23 22 21 20 18 16 14 13 13 14 14 14 13 14 15 16 15 14 13 13 13 12 12 13 14 14 14 13 13 14 14 14 15 15 16 16 16 16 17 17 18 18 19 19 20 20 21 21 22 23 23 24 24 25 25 26 26 26 26
17 17 18 18 19 19 19 19 19 19 19 19 19 19 19 20 20 21 20 19 19 20 20 21 21 21 22 22 22 22 20 17 14 12 12 13 14 15 15 15 15 16 17 17 16 14 13 12 12 11 11 12 12 11 11 11 11 12 12 13 14 14 15 15 16 17 17 18 18 19 20 20 21 22 22 23 24 24 25 25 26 26 27 27 27 27
15 16 17 18 18 18 18 18 18 19 19 20 20 20 20 19 19 19 18 18 18 18 19 19 19 19 19 20 21 21 19 15 13 12 12 14 15 16 16 16 16 17 18 18 18 17 15 12 10 10 10 10 9 9 9 10 10 11 12 13 14 15 15 16 17 18 18 19 19 20 21 21 22 23 23 24 25 25 25 26 26 27 28 28 28 27
13 14 15 15 16 16 16 17 17 18 19 20 20 20 20 19 18 18 17 17 17 17 17 17 17 16 17 17 19 20 19 14 12 12 13 15 16 17 17 17 17 17 17 18 19 19 19 15 11 10 10 10 10 10 10 11 11 13 14 15 15 16 16 17 18 19 19 19 20 20 21 21 22 23 23 24 25 25 26 26 26 27 28 28 29 28
12 13 13 13 14 14 15 16 17 18 18 19 20 20 19 18 18 17 16 16 16 16 16 16 16 16 16 16 17 19 18 15 14 13 14 15 17 17 17 18 18 18 18 18 19 19 19 20 18 14 13 13 12 12 12 12 13 14 15 15 16 16 16 17 18 18 18 19 19 19 20 21 21 22 23 23 24 25 25 26 26 27 28 29 29 29
14 14 14 14 15 15 15 16 17 17 18 19 19 19 18 18 17 16 15 15 15 15 15 15 15 16 16 17 17 18 18 16 14 14 14 15 17 18 18 19 19 19 19 19 19 20 20 23 23 20 17 15 14 13 12 11 11 11 12 13 13 14 14 15 16 16 17 17 17 18 18 19 20 21 22 22 23 24 24 25 26 26 27 28 29 29
15 15 16 16 16 16 16 17 17 17 18 18 18 18 17 17 16 16 15 15 15 15 15 15 15 16 16 17 17 17 17 15 13 13 14 15 17 19 19 20 21 21 21 21 21 22 23 23 23 23 21 18 16 14 12 11 9 9 10 10 11 11 12 13 13 14 14 15 15 15 16 17 18 19 20 21 22 22 23 24 24 25 26 27 28 28
16 16 16 16 16 16 16 16 16 17 17 17 16 16 16 16 15 15 15 15 15 16 16 15 15 15 16 16 17 17 16 14 13 13 15 16 18 19 21 21 21 22 22 22 23 23 24 24 23 23 23 21 18 15 14 12 11 10 9 9 10 10 10 11 12 12 12 13 13 13 14 15 16 17 18 19 20 21 21 22 23 23 24 25 26 27
17 16 16 16 16 16 16 16 16 15 15 15 15 15 15 15 15 14 14 15 15 16 16 16 15 15 15 15 16 17 16 15 14 14 16 17 18 20 21 22 22 22 22 23 23 23 24 25 24 23 23 23 21 18 15 13 12 11 10 10 10 10 10 10 11 11 11 12 12 12 13 14 15 16 17 17 18 19 20 21 21 22 23 24 25 26
17 16 16 16 16 16 16 15 15 14 14 14 14 14 14 14 14 14 14 14 14 15 15 15 15 15 14 14 15 16 16 15 15 15 16 17 18 20 21 21 21 21 22 22 23 23 24 25 24 23 22 22 22 20 17 15 13 12 12 11 11 10 10 10 11 11 12 12 12 13 13 14 15 16 17 17 18 19 20 20 21 22 22 23 25 26
16 16 16 15 15 15 15 14 14 14 13 13 13 13 13 14 14 14 14 13 13 14 14 14 14 15 15 15 15 15 16 16 16 17 17 18 19 20 20 21 21 20 21 21 22 22 23 24 24 24 23 22 20 19 18 17 15 14 13 13 12 12 11 12 12 12 13 14 14 15 15 16 16 17 18 18 19 19 20 20 21 21 22 23 24 26
16 15 15 14 14 14 14 13 13 13 12 12 12 12 13 13 13 13 13 13 13 13 13 14 14 14 15 15 16 16 17 17 18 18 18 19 19 20 20 20 20 20 20 20 21 21 22 22 23 23 23 22 21 19 18 17 16 16 15 14 14 13 13 14 14 15 15 16 17 17 17 18 18 19 19 19 20 20 20 21 21 21 22 23 24 25
15 14 14 13 13 13 13 13 12 12 12 12 12 12 12 12 12 12 12 12 12 12 13 13 14 15 15 15 16 17 17 18 18 19 19 19 20 20 20 20 20 19 19 19 19 20 20 20 20 20 20 21 20 19 18 17 16 16 16 16 16 16 16 16 17 17 18 18 19 19 19 19 19 20 20 20 21 21 21 21 21 22 22 22 23 24
14 13 13 13 12 12 12 12 12 11 11 11 11 11 11 11 11 11 11 11 11 12 12 13 14 14 15 16 16 16 17 17 18 18 19 19 19 19 19 19 19 19 19 19 18 18 18 18 18 18 18 18 19 19 18 17 16 16 17 18 18 18 18 18 18 19 19 19 19 19 20 20 20 20 20 21 21 21 21 21 21 22 22 23 23 24
13 13 12 12 12 12 12 11 11 11 11 11 10 10 10 10 10 10 10 11 11 12 13 14 14 15 15 15 15 15 16 16 16 16 17 17 17 17 17 17 17 17 17 17 17 16 16 16 16 16 16 16 17 18 18 17 16 16 17 18 19 20 20 19 18 18 19 19 19 19 19 19 20 20 21 21 21 22 22 22 22 22 22 22 23 24
13 12 12 12 11 11 11 11 11 11 11 10 10 9 9 10 10 11 11 12 12 13 14 15 15 16 15 15 15 14 14 14 14 14 14 14 14 14 15 15 15 15 14 14 15 15 14 14 14 15 15 16 17 18 19 18 17 17 18 19 20 21 21 20 18 17 17 17 17 17 18 18 19 20 21 21 22 22 22 22 22 22 22 22 23 23
12 12 12 11 11 11 11 11 10 10 10 9 9 9 10 10 11 11 12 13 13 14 15 15 15 15 14 14 13 13 12 12 12 12 13 13 13 13 13 13 13 13 13 12 13 13 14 14 14 14 14 15 17 18 19 20 20 20 20 19 20 20 21 20 18 17 17 16 16 16 16 17 19 20 21 22 22 22 23 23 23 23 23 23 23 23
12 12 11 11 11 11 11 10 10 10 9 9 9 10 10 11 11 12 13 13 14 14 14 15 14 13 12 11 11 11 11 11 11 11 11 12 12 12 12 12 12 12 12 12 12 13 13 14 15 15 15 17 18 19 20 21 22 22 21 20 19 19 19 19 18 18 18 17 16 16 16 17 19 20 21 22 22 23 23 23 23 23 23 23 24 24
12 12 11 11 10 10 10 10 10 9 9 9 10 10 11 12 12 13 14 14 13 13 14 14 13 11 10 10 10 10 10 10 10 10 10 10 11 11 11 11 11 11 12 12 13 13 14 15 15 16 17 18 20 21 21 22 22 22 21 20 19 19 19 19 19 19 19 19 18 18 18 19 20 21 23 23 24 24 24 24 24 24 24 24 24 24
12 12 11 11 10 10 10 10 10 10 10 10 11 11 12 13 13 13 14 14 13 13 12 12 11 10 9 9 9 8 9 9 9 10 10 9 9 10 10 11 11 11 12 13 13 14 15 16 16 17 18 20 22 22 22 22 22 21 21 20 20 20 20 21 20 20 20 20 20 20 21 22 23 24 25 26 26 26 26 25 25 25 25 25 25 25
13 12 12 11 11 10 10 10 10 10 10 11 11 12 13 13 13 14 13 13 13 12 12 11 10 9 9 8 8 8 9 9 10 10 11 11 11 11 11 11 11 12 13 13 14 15 16 17 18 18 19 20 22 23 23 21 21 20 20 20 20 21 22 22 22 22 22 22 23 23 24 25 26 27 27 28 28 28 27 27 26 26 25 25 25 25
13 13 12 12 11 11 11 11 11 11 11 11 12 12 13 14 14 14 13 13 13 12 12 11 10 10 9 8 8 9 10 10 11 12 12 13 13 14 14 14 14 14 15 15 16 17 18 19 20 20 20 21 21 22 22 21 20 20 20 21 22 22 23 24 23 23 24 25 25 26 27 28 28 28 29 30 30 30 29 28 27 26 26 25 25 25
13 13 13 13 12 12 11 11 11 12 12 12 12 13 13 14 14 14 13 13 13 13 13 12 11 10 9 9 9 10 12 12 12 13 14 14 15 16 17 17 17 18 18 19 19 20 21 23 23 23 22 21 21 21 21 21 21 21 22 22 23 23 24 25 25 25 26 27 28 28 29 29 29 29 29 30 31 31 31 31 29 28 27 26 26 26
14 14 13 13 13 13 12 12 12 13 13 13 13 14 14 14 14 14 13 13 13 14 14 13 12 11 11 11 11 12 12 13 13 14 15 16 16 17 18 18 19 20 20 21 21 23 24 25 25 25 24 22 21 20 20 21 22 23 23 24 24 24 24 25 26 27 28 29 30 30 30 31 30 30 29 29 30 31 32 32 31 30 28 27 27 27
Wind_Direction
306 306 306 306 307 308 308 308 309 310 308 303 300 299 298 295 291 286 282 280 279 279 278 277 275 272 269 268 266 265 265 264 265 266 268 269 269 268 267 267 267 268 268 269 270 270 271 271 271 271 271 272 274 275 278 281 282 282 281 281 279 277 274 271 268 265 264 262 261 257 253 250 247 245 243 243 243 242 242 242 242 242 242 243 243 243
306 305 305 305 305 306 306 305 305 304 302 296 291 290 293 292 290 286 283 281 279 279 278 277 275 273 270 268 266 265 265 265 266 268 270 270 270 269 268 267 268 268 269 269 269 270 269 268 267 267 267 267 269 270 272 274 274 274 274 274 273 272 270 268 265 262 260 258 255 251 247 244 242 240 240 241 241 242 242 242 242 243 244 245 247 247
304 303 303 303 303 304 304 304 303 300 297 292 286 284 287 287 286 285 282 280 278 275 274 272 271 269 267 265 264 264 265 266 267 269 270 270 269 268 268 267 268 268 269 269 268 267 266 265 265 266 267 269 270 272 272 272 272 271 270 270 269 269 268 267 264 261 258 255 253 251 249 247 246 245 245 245 245 246 246 247 248 249 251 252 253 253
302 302 303 303 304 304 305 305 303 300 296 291 283 279 280 283 283 282 281 280 277 274 271 270 268 267 266 266 266 267 268 270 271 271 271 270 269 267 267 267 267 267 267 267 266 265 265 266 267 270 273 275 277 277 277 276 274 273 271 270 270 270 270 269 267 265 262 260 259 258 257 256 255 255 254 254 254 254 254 255 256 257 258 258 258 257
303 304 305 307 308 308 308 309 307 304 301 295 287 281 278 279 280 281 281 279 277 275 273 272 270 270 270 271 272 273 274 275 275 274 272 270 268 267 266 266 266 266 265 264 264 264 267 270 273 276 279 281 281 281 280 278 276 274 274 274 274 274 273 271 268 266 265 263 261 260 259 259 259 259 258 259 259 259 259 260 260 260 260 260 258 257
310 312 313 314 314 314 314 313 312 309 305 301 296 290 287 284 284 284 282 281 279 278 278 277 277 277 277 278 279 279 279 278 276 274 272 270 269 268 267 267 267 266 265 265 266 268 271 275 278 280 281 281 281 280 278 276 273 272 272 272 271 269 266 264 262 259 257 256 254 253 253 254 255 256 256 257 256 256 255 255 256 256 256 255 255 254
322 324 324 325 325 323 322 318 315 313 310 307 304 301 297 293 291 289 288 287 287 287 286 286 286 285 285 283 282 282 280 279 277 275 273 271 270 270 269 269 269 268 268 269 270 272 274 277 278 279 279 278 278 276 273 269 266 265 265 263 260 258 256 254 253 252 251 251 252 254 255 257 258 259 259 259 258 257 255 253 252 251 252 252 253 253
334 333 331 331 331 329 325 320 317 317 315 314 311 307 303 299 297 296 297 298 297 296 295 293 291 288 286 284 283 282 282 280 279 277 275 274 273 272 272 271 271 271 271 271 272 273 275 276 277 277 277 276 275 272 269 266 262 260 258 257 256 255 254 253 252 253 254 255 257 259 262 263 265 265 265 265 265 264 262 259 256 253 252 253 254 255
336 334 331 329 328 327 324 319 316 316 317 316 314 310 308 306 305 304 303 302 300 296 294 291 289 286 284 283 283 283 283 281 280 279 278 277 276 275 273 272 271 271 271 272 273 274 275 276 277 277 277 276 275 272 270 267 264 261 259 258 257 256 256 256 257 258 260 262 264 266 268 269 270 270 270 270 269 268 266 264 261 257 254 253 253 254
328 328 326 323 320 320 321 317 314 313 314 313 311 308 307 307 307 306 304 299 295 291 288 285 282 281 281 281 282 282 281 281 280 280 280 279 278 276 274 273 272 272 272 273 275 276 277 278 278 278 278 277 275 273 271 269 267 265 264 262 261 260 260 260 261 263 265 267 269 271 272 272 272 271 270 269 268 267 265 264 261 258 255 252 250 250
321 320 319 317 315 314 314 313 311 309 310 309 307 304 302 300 299 299 298 294 290 287 285 282 279 278 278 279 279 279 279 279 279 280 279 278 277 276 274 273 273 273 274 276 278 279 280 281 280 280 279 278 276 275 273 272 271 269 268 267 266 265 264 264 265 266 268 270 271 272 272 271 270 268 267 266 265 264 262 261 259 258 256 253 251 249
317 316 315 313 311 310 310 308 307 305 303 302 301 301 300 296 291 287 285 284 283 283 281 281 280 279 279 279 280 280 279 279 279 280 279 277 276 275 275 275 276 277 278 280 282 283 284 284 283 283 281 280 279 277 275 274 273 272 271 269 268 267 266 266 266 267 268 270 270 270 270 268 267 265 264 262 261 261 260 259 258 258 257 257 255 254
318 316 315 312 309 306 303 302 301 300 299 296 293 291 290 290 287 282 279 276 276 277 277 277 278 279 279 279 280 282 282 282 280 279 279 278 277 277 278 279 279 280 281 283 284 285 286 285 285 284 283 282 281 280 278 276 275 273 271 270 268 267 266 266 266 267 268 268 268 268 267 266 265 263 262 261 260 259 259 258 259 259 260 260 260 259
319 318 316 311 306 301 298 296 294 294 294 293 291 287 284 282 282 280 278 275 275 276 276 277 278 280 281 280 281 281 281 281 281 280 279 279 279 280 280 281 281 282 283 284 284 285 285 284 284 284 284 283 282 281 280 278 276 274 272 270 268 267 266 266 267 267 268 268 268 267 266 265 264 263 262 261 260 260 259 260 260 261 261 261 261 260
319 318 315 307 301 296 294 292 290 288 288 290 291 288 285 283 282 281 281 280 280 279 280 280 281 283 284 282 281 281 280 280 280 280 280 280 281 281 282 283 283 283 284 285 285 285 284 284 283 283 283 283 282 282 280 279 277 274 272 270 269 268 268 268 268 269 269 269 269 268 267 266 265 264 262 261 260 259 259 259 259 259 259 259 259 259
317 316 312 304 297 293 291 289 286 285 286 288 289 289 290 290 290 290 290 288 288 289 289 289 291 291 290 287 283 282 282 282 282 282 282 283 284 285 286 286 286 287 287 288 287 286 285 284 283 282 282 281 281 280 280 278 276 274 273 271 270 270 270 270 271 271 271 270 270 269 268 267 265 264 263 261 260 258 257 256 257 257 258 258 260 261
314 312 307 300 294 290 287 287 285 284 285 287 288 290 292 293 295 295 296 295 295 295 294 294 294 294 292 291 287 284 285 285 286 286 287 287 288 289 290 290 290 291 291 291 289 287 286 284 283 281 280 280 279 278 278 277 276 275 274 273 273 273 273 273 273 272 272 271 270 269 267 266 265 263 262 261 260 259 258 257 258 258 260 261 263 265
305 302 299 293 287 283 281 282 282 283 284 285 287 288 289 290 291 293 294 295 295 294 293 293 291 289 289 289 287 286 287 288 289 289 290 290 291 292 293 293 293 293 293 292 290 288 286 284 282 280 278 277 277 276 276 276 276 275 275 275 275 275 275 274 273 273 272 271 270 268 267 265 264 263 262 261 261 261 261 261 262 263 264 266 267 268
297 295 291 287 282 280 278 279 281 283 284 284 285 286 287 286 286 287 287 288 287 287 287 288 288 288 288 287 288 289 290 291 291 292 293 293 294 295 295 295 294 293 293 291 289 286 285 282 280 278 276 275 275 275 275 275 276 276 277 277 277 276 275 274 273 272 271 270 269 268 267 266 265 264 263 263 263 263 264 264 265 266 267 268 269 270
297 294 289 286 284 282 281 282 284 284 284 283 283 284 283 283 283 283 282 282 282 282 282 283 284 285 286 286 287 290 292 294 295 295 296 296 296 296 297 296 295 294 291 289 285 283 281 280 278 277 275 274 274 274 274 275 276 277 277 278 278 277 276 275 273 272 270 269 268 267 266 265 265 265 265 265 265 265 266 266 267 268 269 270 272 273
302 299 295 293 290 288 286 286 286 285 285 285 285 285 284 283 283 282 282 283 283 283 284 284 285 286 287 288 289 292 294 297 298 298 298 298 297 297 298 297 295 292 289 284 280 277 276 275 275 275 274 273 273 272 273 274 275 277 278 278 278 278 276 275 273 271 270 268 267 266 265 265 265 265 265 265 266 266 267 267 268 270 271 273 274 276
303 301 298 297 296 293 290 288 288 289 289 289 289 288 287 287 286 286 286 287 288 288 289 289 289 290 292 293 294 295 297 299 300 300 300 299 298 298 298 296 294 290 285 281 276 272 271 272 272 272 272 271 270 270 271 273 274 276 277 278 277 277 276 274 272 271 270 268 267 265 265 264 264 264 265 265 266 267 268 269 271 272 274 275 276 277
299 298 298 300 300 298 295 293 292 293 294 294 293 291 291 292 292 293 293 293 293 294 294 294 295 295 296 297 297 298 299 301 302 302 301 299 298 298 299 296 293 288 283 279 275 271 268 268 269 269 268 268 268 268 270 271 273 274 275 275 275 274 273 271 270 268 267 266 265 264 263 263 263 264 265 266 267 268 270 271 272 274 275 276 276 276
298 298 298 300 300 299 298 295 294 294 295 295 295 296 296 297 298 298 298 299 299 300 301 301 301 300 301 301 301 302 303 305 306 305 302 299 298 298 298 297 293 287 282 279 276 273 270 268 267 266 265 265 266 267 268 270 271 271 271 271 270 268 267 266 265 263 263 263 263 262 263 263 263 265 266 267 269 270 272 272 274 274 275 275 274 274
297 297 297 298 298 298 297 295 294 294 294 295 296 298 299 300 299 299 300 301 303 305 307 306 304 305 307 307 308 308 308 310 310 308 304 300 298 297 298 297 293 288 284 281 279 277 275 271 267 265 264 265 266 267 268 268 268 267 266 264 262 261 260 259 259 259 260 261 262 262 263 264 265 266 267 269 270 271 272 273 273 273 273 273 273 272
295 295 295 294 294 294 293 293 293 292 291 292 293 295 296 296 296 296 297 300 303 305 305 304 304 305 308 309 309 310 311 312 313 311 306 301 298 297 299 298 295 291 288 286 284 283 280 275 271 268 266 266 266 267 267 267 265 263 260 258 257 256 256 256 257 258 259 261 262 263 264 265 265 266 267 268 269 270 271 272 272 272 272 272 271 271
294 293 293 293 293 293 293 293 292 291 290 289 289 290 291 292 293 294 295 299 302 303 302 300 301 303 305 307 308 309 311 312 314 314 308 301 297 298 302 303 300 297 294 292 290 289 286 281 277 274 270 269 268 268 267 265 262 259 257 256 256 255 256 256 257 258 259 260 261 262 263 264 265 266 267 267 268 269 270 270 271 271 270 270 270 270
294 294 295 296 296 296 297 297 296 295 294 293 291 290 289 291 292 294 297 301 302 300 297 297 297 299 302 303 305 307 308 313 316 316 309 301 298 301 305 306 305 303 301 298 295 291 289 287 283 279 275 272 271 269 267 263 259 257 255 254 254 254 254 255 255 256 257 258 259 260 262 263 264 265 266 266 267 268 268 269 269 269 269 268 268 269
295 296 297 298 298 298 298 299 298 297 296 295 294 293 292 293 294 296 299 300 298 295 293 293 294 296 298 300 302 304 307 313 318 317 310 303 300 302 306 307 307 306 305 303 298 293 291 290 287 282 277 274 271 268 264 259 255 252 251 250 250 250 251 252 254 255 256 258 259 260 261 262 263 264 265 265 266 266 267 267 267 267 267 267 268 268
293 293 294 294 295 295 296 296 295 293 293 292 292 293 294 295 296 297 298 297 295 292 291 292 292 293 294 297 298 300 305 313 316 313 308 302 301 302 304 305 306 308 308 309 306 301 298 294 288 283 279 274 269 264 259 255 252 250 249 249 249 250 252 254 255 257 258 259 260 261 262 262 263 264 264 265 265 266 266 266 266 266 267 267 267 268
290 290 290 290 290 290 289 288 287 287 287 288 289 291 294 296 297 297 296 295 293 292 291 291 291 291 291 292 292 294 299 307 310 307 304 300 300 301 304 305 307 308 311 312 312 310 306 301 292 283 279 274 269 264 260 259 258 257 256 255 255 256 257 258 259 260 260 261 261 262 263 264 264 265 265 266 266 266 266 266 266 266 266 267 268 268
301 299 297 295 292 290 287 285 284 284 285 287 289 291 294 296 297 297 296 295 293 292 292 291 290 289 288 288 288 289 295 301 305 304 303 301 300 302 304 305 306 308 311 312 311 309 307 304 300 293 286 280 274 268 263 263 263 264 263 262 261 261 262 262 262 262 262 263 264 264 265 266 266 266 267 267 267 266 266 266 266 266 266 267 268 269
308 307 304 302 298 295 292 290 288 287 288 289 291 293 295 296 297 297 296 295 294 293 292 291 290 288 288 288 289 292 295 299 303 305 304 301 299 299 302 303 304 306 308 309 308 307 305 304 303 301 297 292 286 280 273 269 266 266 265 264 263 262 262 262 263 263 263 264 264 265 266 266 267 267 267 267 267 266 266 266 265 265 266 267 268 269
307 306 305 304 301 298 296 293 292 291 292 292 294 295 296 297 297 298 297 297 296 294 293 292 290 289 289 290 291 293 295 298 300 301 299 295 294 295 298 299 301 303 306 306 307 306 305 304 304 304 302 298 295 293 291 288 283 277 272 269 266 264 262 262 262 263 264 264 265 266 266 266 266 266 267 267 267 267 267 266 266 266 266 267 268 269
306 305 304 302 300 298 296 294 293 293 293 294 294 295 296 296 297 297 297 297 297 297 297 296 294 293 292 292 293 294 295 297 296 295 294 291 292 294 296 298 300 302 303 304 305 305 304 304 305 305 304 301 298 297 299 301 299 294 288 281 277 273 271 269 269 269 269 270 270 270 269 269 268 269 269 269 269 269 269 268 268 267 267 267 267 268
304 304 303 301 299 297 295 294 293 293 293 293 294 294 294 295 295 296 297 297 297 298 300 301 300 300 298 296 296 297 299 301 299 296 294 294 294 295 295 296 299 301 301 302 302 303 303 303 303 304 304 303 302 301 303 304 303 301 298 293 288 284 283 282 281 281 281 281 280 278 276 274 273 272 272 272 272 272 271 271 270 269 268 267 267 267
303 303 301 299 297 296 295 293 293 292 292 293 293 293 293 293 294 295 296 296 297 298 299 301 302 302 302 302 301 302 304 304 302 298 296 296 295 294 294 296 297 298 298 299 300 301 302 302 302 303 302 303 303 305 308 308 307 306 304 300 296 293 292 291 291 291 291 290 289 286 283 281 279 278 276 276 275 274 273 272 271 269 268 267 267 266
303 302 300 298 296 295 294 293 292 292 292 291 291 291 291 291 292 294 294 295 295 297 298 300 301 301 301 302 302 302 303 302 301 299 297 295 294 294 295 296 296 297 297 298 298 299 299 300 300 301 302 302 304 306 310 311 310 310 308 304 301 299 299 299 298 298 298 297 296 293 291 289 287 284 282 280 278 277 275 273 271 269 268 267 267 266
302 301 299 297 296 294 293 293 292 292 292 291 289 288 288 289 290 292 293 294 295 296 297 298 298 298 298 299 299 300 300 300 299 298 296 295 293 293 294 295 296 296 297 296 296 296 296 296 297 298 300 302 304 306 308 309 310 310 308 304 301 302 304 305 305 305 304 303 302 300 297 295 293 291 288 285 283 281 279 276 274 272 270 269 268 267
301 300 298 297 295 294 293 293 293 293 292 290 288 286 286 287 289 290 291 293 294 294 294 294 294 295 296 297 297 297 297 297 296 296 295 294 294 294 294 295 295 296 295 294 294 293 293 294 295 297 300 302 304 306 307 308 309 310 310 307 307 308 309 309 309 309 308 307 306 304 302 299 297 295 292 289 286 284 282 280 278 276 273 272 270 269
300 299 297 295 294 294 294 293 293 291 290 289 289 288 288 287 288 288 289 290 291 290 290 291 292 294 295 296 297 296 296 295 294 294 294 294 294 294 294 293 293 293 293 293 293 293 293 294 296 298 300 302 303 303 303 305 308 311 311 311 311 310 309 309 310 310 310 309 308 307 305 302 300 297 294 291 288 286 284 283 281 279 277 275 274 273
300 298 297 295 294 294 294 293 291 290 289 289 289 289 288 288 287 287 288 290 292 293 293 294 295 296 296 296 296 296 295 294 294 293 293 293 293 293 293 292 292 292 292 292 293 294 295 296 297 298 300 302 302 302 302 304 307 310 312 312 311 308 305 307 309 311 312 311 310 308 306 304 302 298 295 292 290 288 286 284 283 281 280 279 277 276
299 298 296 295 293 293 292 291 290 289 289 288 288 288 288 287 288 290 291 294 296 297 298 298 298 298 298 297 297 297 297 296 296 296 295 295 294 293 293 292 291 292 293 295 295 296 297 297 297 299 300 301 301 302 303 306 309 312 313 314 313 312 310 310 312 313 313 312 311 310 308 306 303 299 296 294 291 289 288 286 285 283 283 282 281 280
298 296 294 293 292 291 290 290 289 288 287 286 285 286 286 286 289 292 294 296 298 299 299 299 299 300 301 301 301 302 302 303 304 303 302 301 300 299 298 297 296 296 297 299 300 299 300 299 299 300 301 300 300 301 303 308 311 313 314 315 315 314 313 314 316 317 316 315 314 313 312 309 305 301 297 295 293 291 290 288 287 285 285 284 284 283
296 293 291 290 289 289 288 288 286 285 283 283 283 283 285 288 290 293 294 296 297 298 298 299 301 303 306 306 306 307 309 311 312 312 311 310 309 308 308 308 307 306 305 303 301 300 300 300 301 302 302 301 300 301 304 309 312 314 315 316 315 314 313 315 318 321 321 320 319 318 317 313 308 304 300 297 295 294 293 291 290 288 287 286 286 286
295 292 290 288 287 287 287 285 284 282 282 282 283 284 287 290 292 293 294 295 296 296 296 298 302 308 310 310 310 310 311 313 316 318 319 317 316 314 314 313 311 309 306 303 302 301 300 300 301 302 303 302 302 303 306 309 311 313 315 316 315 314 315 317 320 322 323 323 323 322 320 317 312 308 305 302 299 297 295 293 293 291 290 290 289 289
294 292 289 287 285 284 283 282 281 282 282 283 284 286 289 292 293 294 294 294 294 295 296 299 304 310 312 314 315 316 316 318 321 325 326 324 320 316 313 311 308 306 304 302 301 301 301 301 302 302 301 300 301 303 306 308 310 312 314 315 315 314 314 317 320 322 323 324 324 324 322 319 316 313 310 307 304 300 298 296 295 294 294 293 293 292
293 290 287 285 283 282 280 280 280 280 281 282 284 286 289 293 295 295 295 294 294 295 298 302 306 309 311 314 320 326 330 330 332 333 331 330 325 320 315 311 308 305 303 302 301 300 301 301 301 301 300 300 301 304 307 309 311 312 313 313 313 314 315 316 319 322 323 323 324 324 322 320 318 316 313 311 307 304 301 300 298 297 296 296 296 295
291 288 286 283 281 279 279 279 279 279 280 281 283 286 289 293 295 295 295 294 295 297 301 305 307 309 311 318 327 334 337 338 338 336 334 331 329 326 322 319 315 312 310 307 306 305 305 304 304 303 303 304 304 306 309 311 312 312 312 312 312 313 315 317 319 322 323 323 323 322 321 319 317 315 313 311 309 306 304 302 300 299 298 298 298 297
289 286 284 282 280 278 278 277 278 278 279 281 284 286 288 291 293 294 293 294 296 299 302 305 309 314 319 326 334 339 341 340 337 334 335 333 331 329 327 325 323 321 319 317 316 315 313 312 309 307 306 306 307 308 309 311 312 312 311 311 312 314 315 317 319 322 323 322 321 320 318 316 315 313 311 309 307 306 305 304 302 300 300 300 299 299
287 285 282 280 278 277 276 276 276 277 279 281 283 285 287 289 289 290 292 294 297 300 302 307 313 320 325 329 335 339 339 339 335 333 334 333 331 329 327 326 325 324 324 322 320 320 318 316 313 310 308 307 308 310 309 310 311 311 310 311 312 314 315 316 318 320 321 319 317 316 314 313 312 311 309 306 304 303 303 303 303 301 301 300 300 299